Weather in Korosten

Ukraine / Zhytomyr Region     50˚56′56″N   28˚38′29″E
temp.,
°C
wind,
m/s
gust,
m/s
humid.,
%
clouds,
%
prec.,
mm/h
press.,
hPa
HPBL,
m
29 november, sun
sun2923:00s129798 0.1 101973
02:00−1˚s229895 0.1 101889
05:00s349196 0.0 1018337
08:00−1˚s249397 0.0 101998
11:00+1˚sw357788 0.1 1020550
14:00+1˚sw347193 0.1 1020769
17:00sw3578100 0.0 1020402
20:00−1˚sw238695 0.0 102174
30 november, mon
mon3023:00−2˚ssw238991 0.0 102242
02:00−2˚ssw239048 0.0 102355
05:00−3˚sw249513 0.0 102394
08:00−3˚wsw23957 0.0 102578
11:00w34760 0.0 1025457
14:00+1˚w347220 0.0 1026707
17:00wnw237688 0.0 1027157
20:00nw237394 0.0 1028153
1 december, tue
tue123:00−1˚nw2272100 0.0 102874
02:00−1˚nnw1271100 0.0 102995
05:00−1˚nne1170100 0.0 102979
08:00−1˚nne127299 0.0 103066
11:00ene236523 0.0 1029668
14:00ene336736 0.0 1029638
17:00−3˚ne33820 0.0 102956
20:00−3˚ene35860 0.0 1030141
2 december, wed
wed223:00−3˚ne36860 0.0 1029166
02:00−2˚ne349025 0.0 1029200
05:00−1˚ne3593100 0.1 1028254
08:00ne4795100 0.2 1028346
11:00e4686100 0.1 1028486
14:00e3479100 0.1 1027587
17:00−2˚ene259897 0.1 1027203
20:00−2˚e259891 0.3 1027204
3 december, thu
thu323:00−2˚ese249882 0.1 1027135
02:00−2˚ese249886 0.3 1026172
05:00−1˚ese269999 0.5 1025238
08:00ese4797100 0.7 1025332
11:00+1˚se588996 0.0 1025459
14:00+2˚se479297 0.0 1024450
17:00+1˚ese5998100 0.1 1024364
20:00+1˚se5996100 0.1 1023456